Time[GMT],temperature[C](50m),salinity[psu](50m),sigma_t[kg/m^3](50m),dissolved_oxygen[ml/l](50m),oxygen_saturation[ml/l](50m),percent_oxygen_saturation[%](50m),conductivity[msiemens/cm](50m)
2013-10-29 21:00,9.57,32.676,25.209,4.488,6.4724,69.33,35.447
2013-10-29 22:00,9.57,32.723,25.245,4.528,6.4705,69.98,35.492
2013-10-29 23:00,9.51,32.769,25.291,4.539,6.4773,70.07,35.484
2013-10-30 01:00,9.66,32.666,25.186,4.520,6.4599,69.97,35.517
2013-10-30 02:00,9.73,32.735,25.229,4.581,6.4470,71.06,35.647
2013-10-30 03:00,9.69,32.689,25.199,4.525,6.4547,70.10,35.566
2013-10-30 04:00,9.71,32.613,25.136,4.487,6.4549,69.51,35.509
2013-10-30 05:00,9.69,32.674,25.187,4.516,6.4553,69.97,35.551
2013-10-30 06:00,9.63,32.601,25.141,4.472,6.4669,69.15,35.427
2013-10-30 07:00,9.65,32.643,25.170,4.483,6.4623,69.37,35.485
2013-10-30 09:00,9.57,32.767,25.279,4.550,6.4687,70.34,35.535
2013-10-30 10:00,9.49,32.866,25.370,4.603,6.4761,71.08,35.561
2013-10-30 11:00,9.60,32.736,25.251,4.545,6.4657,70.29,35.532
2013-10-30 12:00,9.54,32.845,25.346,4.625,6.4698,71.49,35.585
2013-10-30 13:00,9.53,32.859,25.358,4.626,6.4707,71.49,35.589
2013-10-30 14:00,9.62,32.795,25.293,4.600,6.4604,71.21,35.607
2013-10-30 15:00,9.65,32.736,25.242,4.560,6.4585,70.61,35.576
2013-10-30 16:00,9.69,32.699,25.207,4.545,6.4543,70.42,35.576
2013-10-30 17:00,9.65,32.654,25.178,4.483,6.4619,69.37,35.496
2013-10-30 18:00,9.60,32.691,25.216,4.505,6.4675,69.65,35.488
2013-10-30 19:00,9.60,32.691,25.216,4.505,6.4675,69.65,35.488
2013-10-30 20:00,9.66,32.710,25.221,4.539,6.4581,70.29,35.560
2013-10-30 21:00,9.61,32.793,25.293,4.593,6.4619,71.07,35.596
2013-10-30 22:00,9.55,32.824,25.327,4.598,6.4692,71.08,35.573
2013-10-30 23:00,9.56,32.830,25.331,4.612,6.4675,71.30,35.588
2013-10-31 00:00,9.58,32.808,25.310,4.592,6.4656,71.03,35.584
2013-10-31 01:00,9.47,32.882,25.385,4.611,6.4784,71.18,35.558
2013-10-31 02:00,9.56,32.817,25.320,4.582,6.4681,70.85,35.575
2013-10-31 03:00,9.51,32.833,25.341,4.581,6.4746,70.76,35.546
2013-10-31 04:00,9.47,32.850,25.361,4.573,6.4797,70.58,35.527
2013-10-31 05:00,9.63,32.739,25.248,4.539,6.4612,70.25,35.561
2013-10-31 06:00,9.62,32.709,25.226,4.514,6.4639,69.83,35.523
2013-10-31 07:00,9.57,32.704,25.231,4.490,6.4713,69.38,35.474
2013-10-31 08:00,9.57,32.701,25.228,4.490,6.4714,69.38,35.471
2013-10-31 09:00,9.51,32.809,25.322,4.570,6.4756,70.58,35.523
2013-10-31 10:00,9.48,32.852,25.361,4.590,6.4782,70.85,35.538
2013-10-31 11:00,9.50,32.824,25.336,4.583,6.4764,70.76,35.529
2013-10-31 12:00,9.53,32.811,25.321,4.583,6.4726,70.80,35.543
2013-10-31 13:00,9.57,32.780,25.290,4.568,6.4682,70.62,35.548
2013-10-31 14:00,9.59,32.761,25.271,4.557,6.4661,70.48,35.547
2013-10-31 15:00,9.49,32.828,25.341,4.578,6.4777,70.67,35.524
2013-10-31 16:00,9.49,32.827,25.340,4.581,6.4777,70.72,35.523
2013-10-31 17:00,9.61,32.713,25.231,4.512,6.4652,69.79,35.518
2013-10-31 18:00,9.49,32.803,25.321,4.546,6.4788,70.17,35.499
2013-10-31 19:00,9.63,32.679,25.201,4.481,6.4637,69.33,35.503
2013-10-31 20:00,9.59,32.726,25.244,4.478,6.4675,69.24,35.513
2013-10-31 21:00,9.60,32.715,25.234,4.469,6.4665,69.10,35.511
2013-10-31 22:00,9.46,32.816,25.336,4.540,6.4825,70.03,35.485
2013-10-31 23:00,9.44,32.834,25.353,4.553,6.4847,70.22,35.485
2013-11-01 00:00,9.45,32.847,25.361,4.576,6.4827,70.58,35.506
2013-11-01 01:00,9.50,32.804,25.320,4.533,6.4773,69.98,35.509
2013-11-01 02:00,9.57,32.712,25.237,4.472,6.4710,69.11,35.482
2013-11-01 03:00,9.61,32.677,25.203,4.442,6.4667,68.69,35.483
2013-11-01 04:00,9.41,32.868,25.384,4.594,6.4876,70.81,35.491
2013-11-01 05:00,9.40,32.888,25.402,4.598,6.4882,70.86,35.502
2013-11-01 06:00,9.53,32.746,25.269,4.493,6.4753,69.38,35.479
2013-11-01 07:00,9.52,32.763,25.285,4.505,6.4761,69.57,35.487
2013-11-01 08:00,9.64,32.679,25.200,4.459,6.4622,69.01,35.512
2013-11-01 09:00,9.48,32.807,25.325,4.535,6.4800,69.98,35.494
2013-11-01 10:00,9.49,32.778,25.301,4.511,6.4798,69.62,35.475
2013-11-01 11:00,9.51,32.748,25.274,4.477,6.4781,69.11,35.463
2013-11-01 12:00,9.46,32.845,25.358,4.584,6.4814,70.72,35.513
2013-11-01 13:00,9.46,32.830,25.347,4.563,6.4819,70.40,35.499
2013-11-01 14:00,9.44,32.874,25.384,4.600,6.4830,70.95,35.524
2013-11-01 15:00,9.53,32.798,25.310,4.562,6.4732,70.48,35.530
2013-11-01 16:00,9.44,32.855,25.369,4.588,6.4838,70.77,35.505
2013-11-01 17:00,9.49,32.834,25.345,4.587,6.4775,70.81,35.529
2013-11-01 19:00,9.40,32.888,25.402,4.618,6.4882,71.18,35.502
2013-11-01 20:00,9.41,32.884,25.397,4.617,6.4869,71.18,35.507
2013-11-01 21:00,9.41,32.883,25.396,4.606,6.4870,71.00,35.506
2013-11-01 22:00,9.41,32.897,25.407,4.611,6.4864,71.09,35.519
2013-11-01 23:00,9.49,32.862,25.367,4.598,6.4763,70.99,35.557
2013-11-02 00:00,9.45,32.882,25.389,4.631,6.4813,71.45,35.540
2013-11-02 01:00,9.38,32.907,25.420,4.620,6.4904,71.18,35.502
2013-11-02 02:00,9.42,32.894,25.403,4.634,6.4851,71.45,35.525
2013-11-02 03:00,9.43,32.889,25.397,4.627,6.4839,71.36,35.529
2013-11-02 04:00,9.44,32.883,25.391,4.632,6.4827,71.45,35.532
2013-11-02 05:00,9.47,32.877,25.381,4.635,6.4786,71.54,35.553
2013-11-02 06:00,9.42,32.892,25.401,4.619,6.4852,71.23,35.523
2013-11-02 07:00,9.41,32.894,25.404,4.623,6.4866,71.27,35.516
2013-11-02 08:00,9.41,32.896,25.406,4.614,6.4865,71.14,35.518
2013-11-02 09:00,9.45,32.878,25.386,4.607,6.4814,71.09,35.537
2013-11-02 10:00,9.42,32.886,25.397,4.596,6.4854,70.86,35.518
2013-11-02 11:00,9.45,32.874,25.383,4.587,6.4816,70.76,35.533
2013-11-02 12:00,9.48,32.866,25.372,4.601,6.4776,71.04,35.552
2013-11-02 14:00,9.50,32.867,25.369,4.626,6.4747,71.45,35.570
2013-11-02 15:00,9.48,32.876,25.379,4.619,6.4772,71.31,35.561
2013-11-02 16:00,9.60,32.841,25.332,4.610,6.4614,71.35,35.634
2013-11-02 17:00,9.50,32.870,25.371,4.620,6.4745,71.36,35.573
2013-11-02 18:00,9.45,32.885,25.391,4.610,6.4811,71.13,35.543
2013-11-02 19:00,9.51,32.859,25.362,4.613,6.4735,71.26,35.572
2013-11-02 20:00,9.79,32.758,25.237,4.613,6.4375,71.65,35.723
2013-11-02 21:00,9.66,32.805,25.295,4.608,6.4542,71.39,35.653
2013-11-02 22:00,9.64,32.808,25.300,4.595,6.4569,71.16,35.638
2013-11-02 23:00,9.56,32.830,25.331,4.603,6.4675,71.17,35.588
2013-11-03 00:00,9.48,32.873,25.377,4.595,6.4773,70.95,35.558
2013-11-03 01:00,9.58,32.825,25.323,4.577,6.4649,70.80,35.601
2013-11-03 02:00,9.50,32.857,25.362,4.603,6.4751,71.08,35.561
2013-11-03 03:00,9.52,32.862,25.362,4.600,6.4720,71.08,35.583
2013-11-03 04:00,9.56,32.855,25.350,4.602,6.4665,71.17,35.612
2013-11-03 05:00,9.41,32.886,25.399,4.611,6.4869,71.09,35.509
2013-11-03 06:00,9.48,32.877,25.380,4.598,6.4771,70.99,35.562
2013-11-03 07:00,9.40,32.891,25.404,4.603,6.4881,70.95,35.505
2013-11-03 08:00,9.43,32.878,25.389,4.601,6.4843,70.95,35.519
2013-11-03 09:00,9.48,32.861,25.368,4.614,6.4778,71.22,35.547
2013-11-03 10:00,9.54,32.837,25.339,4.590,6.4701,70.94,35.577
2013-11-03 11:00,9.54,32.838,25.340,4.581,6.4701,70.80,35.578
2013-11-03 12:00,9.72,32.755,25.246,4.579,6.4477,71.02,35.657
2013-11-03 13:00,9.44,32.876,25.386,4.600,6.4829,70.95,35.526
2013-11-03 14:00,9.43,32.883,25.393,4.600,6.4841,70.95,35.524
2013-11-03 15:00,9.43,32.882,25.392,4.595,6.4841,70.86,35.523
2013-11-03 16:00,9.46,32.874,25.381,4.606,6.4801,71.08,35.542
2013-11-03 17:00,9.58,32.837,25.333,4.603,6.4644,71.21,35.613
2013-11-03 18:00,9.50,32.866,25.368,4.617,6.4747,71.31,35.569
2013-11-03 19:00,9.46,32.879,25.385,4.621,6.4800,71.31,35.546
2013-11-03 20:00,9.46,32.873,25.381,4.615,6.4802,71.22,35.541
2013-11-03 21:00,9.46,32.875,25.382,4.612,6.4801,71.18,35.543
2013-11-03 22:00,9.44,32.878,25.388,4.605,6.4828,71.04,35.528
2013-11-03 23:00,,,,,,,
2013-11-04 00:00,9.49,32.862,25.367,4.580,6.4763,70.72,35.557
2013-11-04 01:00,9.66,32.802,25.293,4.590,6.4543,71.11,35.650
2013-11-04 02:00,9.49,32.859,25.365,4.565,6.4764,70.49,35.554
2013-11-04 03:00,9.61,32.819,25.314,4.574,6.4608,70.80,35.622
2013-11-04 04:00,9.50,32.850,25.356,4.543,6.4754,70.17,35.554
2013-11-04 05:00,9.74,32.764,25.250,4.541,6.4444,70.46,35.684
2013-11-04 06:00,9.62,32.801,25.298,4.541,6.4601,70.29,35.613
2013-11-04 07:00,9.53,32.836,25.340,4.535,6.4716,70.07,35.567
2013-11-04 08:00,9.51,32.848,25.353,4.557,6.4740,70.39,35.561
2013-11-04 09:00,9.52,32.843,25.347,4.533,6.4728,70.03,35.565
2013-11-04 10:00,9.53,32.837,25.341,4.541,6.4716,70.16,35.568
2013-11-04 12:00,9.77,32.765,25.246,4.585,6.4401,71.20,35.712
2013-11-04 13:00,9.96,32.714,25.174,4.613,6.4152,71.91,35.831
2013-11-04 14:00,9.88,32.743,25.210,4.600,6.4254,71.60,35.788
2013-11-04 15:00,9.73,32.798,25.278,4.594,6.4445,71.29,35.708
2013-11-04 16:00,9.70,32.806,25.289,4.597,6.4485,71.29,35.689
2013-11-04 17:00,,,,,,,
2013-11-04 18:00,9.61,32.827,25.320,4.580,6.4605,70.89,35.630
2013-11-04 19:00,9.57,32.831,25.330,4.557,6.4661,70.48,35.598
2013-11-04 20:00,9.64,32.813,25.304,4.589,6.4567,71.07,35.643
2013-11-04 21:00,9.75,32.780,25.261,4.584,6.4423,71.15,35.709
2013-11-04 22:00,9.70,32.790,25.277,4.577,6.4491,70.97,35.674
2013-11-04 23:00,9.67,32.803,25.292,4.577,6.4528,70.93,35.660
2013-11-05 00:00,9.67,32.801,25.290,4.562,6.4529,70.70,35.658
2013-11-05 01:00,9.60,32.817,25.314,4.551,6.4623,70.43,35.611
2013-11-05 02:00,9.62,32.814,25.308,4.570,6.4596,70.75,35.626
2013-11-05 03:00,9.70,32.810,25.292,4.579,6.4483,71.02,35.693
2013-11-05 04:00,9.81,32.760,25.235,4.581,6.4346,71.19,35.742
2013-11-05 05:00,9.72,32.790,25.274,4.572,6.4462,70.92,35.692
2013-11-05 06:00,9.64,32.818,25.308,4.580,6.4565,70.93,35.648
2013-11-05 07:00,9.69,32.797,25.284,4.557,6.4502,70.65,35.672
2013-11-05 08:00,9.69,32.798,25.285,4.575,6.4502,70.93,35.673
2013-11-05 09:00,9.78,32.763,25.243,4.578,6.4388,71.10,35.719
2013-11-05 10:00,9.68,32.798,25.286,4.558,6.4516,70.65,35.664
2013-11-05 11:00,9.65,32.808,25.299,4.558,6.4555,70.61,35.647
2013-11-05 12:00,9.53,32.849,25.350,4.561,6.4711,70.48,35.580
2013-11-05 13:00,9.58,32.835,25.331,4.559,6.4644,70.52,35.611
2013-11-05 14:00,9.55,32.843,25.343,4.556,6.4684,70.44,35.592
2013-11-05 15:00,9.62,32.813,25.308,4.532,6.4596,70.15,35.625
2013-11-05 16:00,9.62,32.816,25.310,4.532,6.4595,70.15,35.628
2013-11-05 17:00,9.61,32.822,25.316,4.538,6.4607,70.25,35.625
2013-11-05 18:00,9.55,32.823,25.327,4.521,6.4693,69.89,35.572
2013-11-05 19:00,9.53,32.843,25.346,4.508,6.4713,69.66,35.574
2013-11-05 20:00,9.52,32.845,25.349,4.506,6.4727,69.61,35.567
2013-11-05 21:00,9.52,32.845,25.349,4.509,6.4727,69.66,35.567
2013-11-05 22:00,9.65,32.803,25.295,4.550,6.4557,70.47,35.642
2013-11-05 23:00,9.63,32.812,25.305,4.531,6.4582,70.15,35.633
2013-11-06 00:00,9.66,32.806,25.296,4.545,6.4542,70.43,35.654
2013-11-06 01:00,9.68,32.794,25.283,4.558,6.4518,70.65,35.660
2013-11-06 02:00,9.67,32.783,25.276,4.545,6.4537,70.43,35.640
2013-11-06 03:00,9.69,32.778,25.269,4.540,6.4510,70.38,35.653
2013-11-06 04:00,9.58,32.826,25.324,4.530,6.4648,70.07,35.602
2013-11-06 05:00,9.60,32.820,25.316,4.528,6.4622,70.06,35.614
2013-11-06 06:00,9.64,32.806,25.299,4.530,6.4570,70.15,35.636
2013-11-06 07:00,9.56,32.833,25.333,4.502,6.4674,69.61,35.591
2013-11-06 08:00,9.65,32.797,25.290,4.514,6.4560,69.92,35.636
2013-11-06 09:00,9.70,32.783,25.271,4.539,6.4494,70.38,35.667
2013-11-06 10:00,9.80,32.738,25.220,4.530,6.4369,70.37,35.712
2013-11-06 11:00,9.74,32.726,25.220,4.474,6.4460,69.41,35.647
2013-11-06 12:00,9.67,32.757,25.256,4.475,6.4547,69.33,35.615
2013-11-06 13:00,9.66,32.789,25.282,4.505,6.4549,69.78,35.637
2013-11-06 14:00,9.67,32.771,25.266,4.486,6.4542,69.51,35.628
2013-11-06 15:00,9.71,32.756,25.248,4.491,6.4491,69.64,35.649
2013-11-06 16:00,9.64,32.799,25.293,4.512,6.4573,69.88,35.629
2013-11-06 17:00,9.68,32.785,25.276,4.532,6.4522,70.24,35.651
2013-11-06 18:00,9.75,32.763,25.247,4.555,6.4430,70.69,35.692
2013-11-06 19:00,9.62,32.801,25.298,4.532,6.4601,70.15,35.613
2013-11-06 20:00,9.57,32.820,25.321,4.501,6.4665,69.61,35.587
2013-11-06 21:00,9.63,32.757,25.262,4.461,6.4605,69.05,35.579
2013-11-06 22:00,9.68,32.721,25.226,4.436,6.4548,68.73,35.588
2013-11-06 23:00,9.65,32.745,25.249,4.427,6.4581,68.55,35.585
2013-11-07 00:00,9.56,32.797,25.305,4.435,6.4689,68.56,35.556
2013-11-07 01:00,9.58,32.782,25.290,4.418,6.4666,68.33,35.559
2013-11-07 02:00,9.61,32.769,25.275,4.430,6.4629,68.55,35.573
2013-11-07 03:00,9.73,32.706,25.206,4.429,6.4483,68.68,35.618
2013-11-07 04:00,9.68,32.717,25.222,4.422,6.4550,68.50,35.584
2013-11-07 06:00,9.55,32.793,25.303,4.454,6.4705,68.83,35.543
2013-11-07 07:00,9.40,32.824,25.351,4.510,6.4909,69.49,35.439
2013-11-07 08:00,9.66,32.748,25.250,4.464,6.4566,69.14,35.597
2013-11-07 09:00,9.51,32.800,25.315,4.476,6.4760,69.11,35.514
2013-11-07 10:00,9.45,32.814,25.336,4.499,6.4841,69.39,35.474
2013-11-07 11:00,9.65,32.743,25.248,4.460,6.4582,69.05,35.583
2013-11-07 12:00,9.56,32.777,25.289,4.483,6.4697,69.29,35.536
2013-11-07 13:00,9.60,32.756,25.266,4.470,6.4649,69.15,35.551
2013-11-07 14:00,9.81,32.661,25.158,4.419,6.4387,68.63,35.645
2013-11-07 15:00,9.92,32.624,25.111,4.447,6.4245,69.21,35.707
2013-11-07 16:00,9.95,32.618,25.101,4.458,6.4205,69.44,35.728
2013-11-07 17:00,9.77,32.716,25.208,4.510,6.4421,70.00,35.664
2013-11-07 18:00,9.56,32.764,25.279,4.501,6.4702,69.56,35.524
2013-11-07 19:00,9.46,32.791,25.316,4.517,6.4836,69.66,35.461
2013-11-07 20:00,9.50,32.786,25.306,4.504,6.4780,69.52,35.492
2013-11-07 21:00,9.46,32.790,25.316,4.514,6.4836,69.62,35.460
2013-11-07 22:00,9.45,32.819,25.340,4.541,6.4839,70.03,35.479
2013-11-07 23:00,9.47,32.811,25.330,4.539,6.4813,70.03,35.489
2013-11-08 00:00,9.62,32.756,25.263,4.495,6.4620,69.56,35.569
2013-11-08 01:00,,,,,,,
2013-11-08 02:00,9.88,32.640,25.130,4.459,6.4296,69.35,35.687
2013-11-08 03:00,,,,,,,
2013-11-08 04:00,10.02,32.640,25.107,4.600,6.4097,71.77,35.812
2013-11-08 05:00,9.67,32.766,25.263,4.537,6.4544,70.29,35.624
2013-11-08 06:00,9.60,32.775,25.281,4.553,6.4640,70.43,35.570
2013-11-08 07:00,9.50,32.819,25.332,4.553,6.4766,70.30,35.524
2013-11-08 08:00,9.61,32.774,25.279,4.552,6.4627,70.43,35.578
2013-11-08 09:00,9.58,32.801,25.304,4.560,6.4659,70.52,35.577
2013-11-08 10:00,9.65,32.777,25.274,4.559,6.4568,70.61,35.616
2013-11-08 11:00,9.83,32.710,25.193,4.583,6.4338,71.24,35.711
2013-11-08 12:00,9.67,32.743,25.245,4.508,6.4553,69.83,35.601
2013-11-08 13:00,9.61,32.773,25.278,4.513,6.4627,69.83,35.577
2013-11-08 14:00,9.64,32.758,25.261,4.496,6.4590,69.60,35.589
2013-11-08 15:00,9.63,32.764,25.268,4.529,6.4602,70.11,35.586
2013-11-08 16:00,9.70,32.748,25.244,4.540,6.4508,70.38,35.633
2013-11-08 17:00,9.95,32.660,25.134,4.607,6.4188,71.78,35.769
2013-11-08 18:00,9.60,32.790,25.293,4.555,6.4634,70.48,35.585
2013-11-08 19:00,9.56,32.810,25.315,4.547,6.4684,70.30,35.568
2013-11-08 20:00,9.48,32.835,25.347,4.537,6.4789,70.03,35.521
2013-11-08 21:00,9.48,32.832,25.345,4.543,6.4790,70.12,35.519
2013-11-08 22:00,9.54,32.810,25.318,4.540,6.4712,70.16,35.551
2013-11-08 23:00,9.61,32.785,25.288,4.534,6.4622,70.16,35.589
2013-11-09 00:00,9.64,32.766,25.268,4.510,6.4587,69.83,35.597
2013-11-09 01:00,9.66,32.747,25.249,4.458,6.4566,69.05,35.596
2013-11-09 02:00,9.70,32.734,25.233,4.452,6.4514,69.00,35.619
2013-11-09 03:00,9.69,32.738,25.238,4.470,6.4527,69.28,35.614
2013-11-09 04:00,,,,,,,
2013-11-09 05:00,9.68,32.739,25.240,4.462,6.4541,69.14,35.606
2013-11-09 06:00,9.67,32.747,25.248,4.478,6.4552,69.37,35.605
2013-11-09 07:00,9.72,32.719,25.218,4.453,6.4491,69.05,35.622
2013-11-09 08:00,9.52,32.814,25.325,4.495,6.4739,69.43,35.537
2013-11-09 09:00,9.56,32.798,25.306,4.497,6.4688,69.52,35.557
2013-11-09 10:00,9.61,32.774,25.279,4.484,6.4627,69.38,35.578
2013-11-09 11:00,9.60,32.779,25.284,4.470,6.4639,69.15,35.574
2013-11-09 12:00,9.64,32.761,25.264,4.448,6.4589,68.87,35.592
2013-11-09 13:00,9.62,32.763,25.268,4.412,6.4617,68.28,35.576
2013-11-09 14:00,9.58,32.774,25.283,4.460,6.4670,68.97,35.551
2013-11-09 15:00,9.56,32.788,25.298,4.438,6.4693,68.60,35.547
2013-11-09 16:00,9.60,32.767,25.275,4.437,6.4644,68.64,35.562
2013-11-09 17:00,9.53,32.803,25.314,4.399,6.4730,67.96,35.535
2013-11-09 18:00,9.55,32.788,25.299,4.445,6.4707,68.69,35.538
2013-11-09 19:00,9.60,32.773,25.280,4.420,6.4641,68.37,35.568
2013-11-09 20:00,9.62,32.767,25.272,4.421,6.4615,68.41,35.580
2013-11-09 21:00,9.61,32.770,25.276,4.430,6.4628,68.55,35.574
2013-11-09 22:00,9.59,32.774,25.282,4.418,6.4655,68.32,35.560
2013-11-10 00:00,9.63,32.753,25.259,4.384,6.4607,67.86,35.575
2013-11-10 01:00,9.61,32.760,25.268,4.440,6.4632,68.69,35.564
2013-11-10 02:00,9.60,32.757,25.267,4.376,6.4648,67.68,35.552
2013-11-10 03:00,9.58,32.768,25.279,4.374,6.4672,67.64,35.545
2013-11-10 04:00,9.60,32.758,25.268,4.370,6.4648,67.59,35.553
2013-11-10 06:00,9.57,32.778,25.288,4.467,6.4682,69.06,35.546
2013-11-10 07:00,9.60,32.762,25.271,4.417,6.4646,68.32,35.557
2013-11-10 08:00,9.64,32.747,25.253,4.387,6.4595,67.91,35.578
2013-11-10 09:00,9.70,32.717,25.219,4.393,6.4521,68.09,35.602
2013-11-10 10:00,9.62,32.756,25.263,4.415,6.4620,68.32,35.569
2013-11-10 11:00,9.59,32.778,25.285,4.432,6.4654,68.55,35.564
2013-11-10 12:00,9.63,32.752,25.258,4.405,6.4607,68.18,35.574
2013-11-10 13:00,9.63,32.754,25.260,4.402,6.4606,68.14,35.576
2013-11-10 14:00,9.59,32.772,25.280,4.391,6.4656,67.91,35.558
2013-11-10 15:00,9.59,32.778,25.285,4.429,6.4654,68.51,35.564
2013-11-10 16:00,9.61,32.765,25.272,4.419,6.4630,68.37,35.569
2013-11-10 17:00,9.57,32.789,25.297,4.428,6.4678,68.46,35.557
2013-11-10 18:00,9.57,32.792,25.299,4.434,6.4677,68.56,35.560
2013-11-10 19:00,9.57,32.792,25.299,4.434,6.4677,68.56,35.560
2013-11-10 20:00,9.62,32.763,25.268,4.430,6.4617,68.55,35.576
2013-11-10 21:00,9.67,32.735,25.238,4.416,6.4557,68.41,35.593
2013-11-10 22:00,9.64,32.748,25.253,4.422,6.4594,68.46,35.579
2013-11-10 23:00,9.57,32.786,25.295,4.431,6.4679,68.51,35.554
2013-11-11 00:00,9.60,32.774,25.280,4.449,6.4641,68.83,35.569
2013-11-11 01:00,9.54,32.803,25.313,4.466,6.4715,69.02,35.544
2013-11-11 02:00,9.61,32.764,25.271,4.416,6.4631,68.32,35.568
2013-11-11 03:00,9.77,32.692,25.188,4.392,6.4431,68.17,35.640
2013-11-11 04:00,9.78,32.692,25.187,4.415,6.4417,68.54,35.649
2013-11-11 05:00,9.87,32.653,25.142,4.383,6.4304,68.16,35.691
2013-11-11 06:00,9.91,32.638,25.124,4.383,6.4254,68.21,35.712
2013-11-11 07:00,9.92,32.636,25.120,4.387,6.4240,68.30,35.719
2013-11-11 08:00,9.92,32.649,25.130,4.425,6.4235,68.89,35.731
2013-11-11 09:00,9.79,32.698,25.190,4.440,6.4400,68.95,35.664
2013-11-11 10:00,9.73,32.732,25.227,4.446,6.4472,68.95,35.644
2013-11-11 11:00,9.61,32.779,25.283,4.480,6.4624,69.33,35.583
2013-11-11 12:00,9.74,32.733,25.226,4.468,6.4457,69.32,35.654
2013-11-11 13:00,,,,,,,
2013-11-11 14:00,9.67,32.756,25.255,4.472,6.4548,69.28,35.614
2013-11-11 15:00,9.73,32.728,25.223,4.443,6.4473,68.91,35.640
2013-11-11 16:00,9.73,32.715,25.213,4.372,6.4479,67.81,35.627
2013-11-11 17:00,9.77,32.692,25.188,4.348,6.4431,67.49,35.640
2013-11-11 18:00,9.73,32.715,25.213,4.378,6.4479,67.90,35.627
2013-11-11 19:00,9.71,32.727,25.226,4.412,6.4502,68.41,35.621
2013-11-11 20:00,9.65,32.763,25.264,4.438,6.4574,68.73,35.603
2013-11-11 21:00,9.69,32.735,25.235,4.423,6.4528,68.55,35.611
2013-11-11 22:00,9.58,32.793,25.299,4.483,6.4662,69.33,35.570
2013-11-11 23:00,9.61,32.782,25.285,4.460,6.4623,69.01,35.586
2013-11-12 00:00,9.64,32.763,25.265,4.457,6.4588,69.01,35.594
2013-11-12 01:00,9.60,32.784,25.288,4.467,6.4637,69.10,35.579
2013-11-12 02:00,9.63,32.776,25.277,4.484,6.4597,69.42,35.598
2013-11-12 03:00,9.70,32.731,25.230,4.399,6.4515,68.18,35.616
2013-11-12 04:00,9.67,32.749,25.249,4.428,6.4551,68.59,35.607
2013-11-12 06:00,9.70,32.720,25.222,4.346,6.4520,67.35,35.605
2013-11-12 07:00,9.70,32.725,25.226,4.378,6.4518,67.86,35.610
2013-11-12 08:00,9.73,32.705,25.205,4.316,6.4483,66.94,35.617
2013-11-12 09:00,9.75,32.699,25.197,4.320,6.4457,67.03,35.629
2013-11-12 10:00,9.66,32.755,25.256,4.461,6.4563,69.10,35.604
2013-11-12 11:00,9.78,32.705,25.197,4.412,6.4411,68.49,35.662
2013-11-12 12:00,9.75,32.715,25.210,4.420,6.4450,68.59,35.645
2013-11-12 13:00,9.70,32.744,25.241,4.445,6.4510,68.91,35.629
2013-11-12 14:00,9.67,32.758,25.257,4.448,6.4547,68.91,35.616
2013-11-12 15:00,9.72,32.725,25.223,4.406,6.4489,68.31,35.628
2013-11-12 16:00,9.71,32.729,25.227,4.398,6.4502,68.18,35.623
2013-11-12 17:00,9.78,32.683,25.180,4.324,6.4421,67.12,35.640
2013-11-12 18:00,9.81,32.652,25.150,4.254,6.4391,66.06,35.636
2013-11-12 19:00,9.78,32.675,25.173,4.265,6.4424,66.20,35.632
2013-11-12 20:00,,,,,,,
2013-11-12 21:00,9.76,32.701,25.197,4.355,6.4442,67.58,35.640
2013-11-12 22:00,9.76,32.697,25.194,4.358,6.4443,67.62,35.636
2013-11-12 23:00,9.83,32.662,25.155,4.308,6.4358,66.93,35.664
2013-11-13 00:00,9.68,32.743,25.243,4.436,6.4539,68.73,35.610
2013-11-13 01:00,9.95,32.589,25.078,4.233,6.4217,65.91,35.699
2013-11-13 02:00,9.73,32.710,25.209,4.378,6.4481,67.90,35.622
2013-11-13 03:00,,,,,,,
2013-11-13 04:00,,,,,,,
2013-11-13 05:00,9.67,32.724,25.230,4.310,6.4561,66.76,35.582
2013-11-13 06:00,9.77,32.655,25.160,4.222,6.4446,65.52,35.604
2013-11-13 07:00,9.75,32.666,25.172,4.245,6.4470,65.84,35.597
2013-11-13 08:00,9.75,32.667,25.172,4.230,6.4470,65.61,35.598
2013-11-13 09:00,9.75,32.665,25.171,4.245,6.4471,65.84,35.596
2013-11-13 10:00,9.72,32.693,25.198,4.282,6.4502,66.39,35.597
2013-11-13 11:00,9.76,32.661,25.166,4.238,6.4458,65.75,35.601
2013-11-13 12:00,9.78,32.646,25.151,4.213,6.4436,65.38,35.604
2013-11-13 13:00,9.78,32.646,25.151,4.213,6.4436,65.38,35.604
2013-11-13 14:00,9.62,32.754,25.261,4.314,6.4621,66.77,35.567
2013-11-13 15:00,9.67,32.723,25.229,4.304,6.4562,66.67,35.581
2013-11-13 16:00,9.69,32.710,25.216,4.282,6.4538,66.35,35.587
2013-11-13 17:00,9.68,32.720,25.225,4.265,6.4549,66.07,35.587
2013-11-13 18:00,9.65,32.740,25.245,4.306,6.4583,66.67,35.580
2013-11-13 19:00,9.66,32.738,25.242,4.311,6.4570,66.76,35.587
2013-11-13 20:00,9.67,32.731,25.235,4.316,6.4558,66.85,35.589
2013-11-13 21:00,9.65,32.742,25.247,4.306,6.4582,66.67,35.582
2013-11-13 22:00,9.63,32.749,25.256,4.328,6.4608,66.99,35.571
2013-11-13 23:00,9.64,32.746,25.252,4.321,6.4595,66.90,35.577
2013-11-14 00:00,9.65,32.741,25.246,4.300,6.4583,66.58,35.581
2013-11-14 01:00,9.69,32.710,25.216,4.279,6.4538,66.30,35.587
2013-11-14 02:00,9.64,32.744,25.250,4.283,6.4596,66.31,35.575
2013-11-14 03:00,9.63,32.748,25.255,4.287,6.4609,66.35,35.570
2013-11-14 04:00,9.61,32.767,25.273,4.306,6.4629,66.63,35.571
2013-11-14 05:00,9.63,32.750,25.256,4.275,6.4608,66.17,35.572
2013-11-14 06:00,9.68,32.718,25.223,4.262,6.4549,66.03,35.585
2013-11-14 07:00,9.64,32.746,25.252,4.292,6.4595,66.44,35.577
2013-11-14 08:00,9.58,32.781,25.289,4.282,6.4667,66.22,35.558
2013-11-14 09:00,9.61,32.765,25.272,4.294,6.4630,66.45,35.569
2013-11-14 10:00,9.65,32.740,25.245,4.297,6.4583,66.53,35.580
2013-11-14 11:00,9.70,32.708,25.212,4.316,6.4525,66.90,35.593
2013-11-14 12:00,9.76,32.681,25.181,4.341,6.4450,67.35,35.620
2013-11-14 13:00,9.77,32.674,25.174,4.343,6.4439,67.39,35.622
2013-11-14 14:00,9.80,32.633,25.138,4.226,6.4412,65.61,35.609
2013-11-14 15:00,9.84,32.619,25.120,4.290,6.4361,66.66,35.631
2013-11-14 16:00,9.67,32.717,25.225,4.296,6.4564,66.53,35.576
2013-11-14 17:00,9.65,32.735,25.241,4.312,6.4585,66.76,35.575
2013-11-14 18:00,9.63,32.745,25.252,4.317,6.4610,66.81,35.567
2013-11-14 19:00,9.60,32.766,25.274,4.295,6.4644,66.45,35.561
2013-11-14 20:00,9.60,32.764,25.272,4.307,6.4645,66.63,35.559
2013-11-14 21:00,9.62,32.751,25.259,4.314,6.4622,66.77,35.564
2013-11-14 22:00,9.65,32.728,25.237,4.330,6.4588,67.04,35.569
2013-11-14 23:00,9.64,32.730,25.240,4.369,6.4601,67.63,35.562
2013-11-15 00:00,9.66,32.709,25.220,4.386,6.4581,67.91,35.559
2013-11-15 01:00,9.64,32.724,25.235,4.369,6.4604,67.63,35.556
2013-11-15 02:00,9.64,32.727,25.237,4.355,6.4603,67.40,35.559
2013-11-15 03:00,9.65,32.715,25.226,4.383,6.4593,67.86,35.556
2013-11-15 04:00,9.63,32.742,25.250,4.349,6.4611,67.31,35.564